Location: Janeiro
(34.9957°N, 76.7652°W)
Time: 12:55:46
(UTC+00:00)

Lacrosse 5 - Pass Details

Date: 14 December 2019
Orbit: 717 x 722 km, 57.0° (Epoch: 10 January)

Event Time Altitude Azimuth Distance (km) Brightness Sun altitude
Rises 22:24:41 0° 198° (SSW) 3,107 5.9 -6.0°
Reaches altitude 10° 22:27:10 10° 191° (S) 2,190 4.9 -6.5°
Maximum altitude 22:31:50 39° 123° (ESE) 1,070 2.5 -7.4°
Drops below altitude 10° 22:36:31 10° 55° (NE) 2,199 3.7 -8.2°
Enters shadow 22:36:38 10° 55° (NE) 2,240 3.8 -8.3°
